Tucson, AZ

3:25 AM MST on February 25, 2018 (GMT -0700)
Tucson International

Weather History for KTUS - October, 2012

Change the Weather History Date:

Monday, October 15, 2012

  Actual Average Record
Temperature  
Mean Temperature 76 °F 71 °F  
Max Temperature 92 °F 85 °F 99 °F (2011)
Min Temperature 59 °F 58 °F 38 °F (1928)
Degree Days  
Heating Degree Days 0 1  
Month to date heating degree days 1 1  
Since 1 July heating degree days 1 1  
Cooling Degree Days 11 7  
Month to date cooling degree days 163 137  
Year to date cooling degree days 3425 3044  
Growing Degree Days 25 (Base 50)    
Moisture  
Dew Point 23 °F    
Average Humidity 17    
Maximum Humidity 29    
Minimum Humidity 5    
Precipitation  
Precipitation 0.00 in 0.03 in 0.35 in (1994)
Month to date precipitation T 0.51  
Year to date precipitation 6.70 9.71  
Snow  
Snow 0.00 in - - ()
Month to date snowfall 0.0  
Snow Depth 0.00 in    
Sea Level Pressure  
Sea Level Pressure 29.88 in    
Wind  
Wind Speed 6 mph (South)    
Max Wind Speed 13 mph    
Max Gust Speed 22 mph    
Visibility 10 miles    
Events      
T = Trace of Precipitation, MM = Missing Value Source: NWS Daily Summary

Daily Weather History Graph

Daily Weather History Graph

Search for Another Location

Airport or City:

Trip Planner

Search our weather history database for the weather conditions in past years. The results will help you decide how hot, cold, wet, or windy it might be!

Date:

Astronomy

Oct. 15, 2012 Rise Set
Actual Time 6:27 AM MST 5:50 PM MST
Civil Twilight 6:03 AM MST 6:15 PM MST
Nautical Twilight 5:34 AM MST 6:43 PM MST
Astronomical Twilight 5:06 AM MST 7:11 PM MST
Moon 6:38 AM MST (10/15) 5:57 PM MST (10/15)
Length of Visible Light 12h 12m
Length of Day
11h 22m
New Moon, 0% of the Moon is Illuminated
Oct 15
New Moon
Oct 21
First Quarter
Oct 29
Full
Nov 6
Last Quarter
Nov 13
New

Hourly Weather History & Observations

Time (MST) Temp. Dew Point Humidity Pressure Visibility Wind Dir Wind Speed Gust Speed Precip Events Conditions
12:53 AM 70.0 °F 26.1 °F 19% 29.91 in 10.0 mi SE 12.7 mph - N/A   Clear
1:53 AM 71.1 °F 26.1 °F 19% 29.91 in 10.0 mi East 8.1 mph - N/A   Clear
2:53 AM 61.0 °F 28.0 °F 29% 29.91 in 10.0 mi SE 9.2 mph - N/A   Clear
3:53 AM 62.1 °F 27.0 °F 26% 29.90 in 10.0 mi ESE 4.6 mph - N/A   Clear
4:53 AM 61.0 °F 27.0 °F 27% 29.91 in 10.0 mi SE 9.2 mph - N/A   Clear
5:53 AM 60.1 °F 27.0 °F 28% 29.92 in 10.0 mi Calm Calm - N/A   Clear
6:53 AM 59.0 °F 27.0 °F 29% 29.94 in 10.0 mi SSE 10.4 mph - N/A   Clear
7:53 AM 64.9 °F 28.0 °F 25% 29.95 in 10.0 mi South 8.1 mph - N/A   Clear
8:53 AM 69.1 °F 28.9 °F 22% 29.96 in 10.0 mi SSE 6.9 mph - N/A   Clear
9:53 AM 78.1 °F 28.9 °F 17% 29.94 in 10.0 mi South 6.9 mph - N/A   Clear
10:53 AM 81.0 °F 28.9 °F 15% 29.92 in 10.0 mi South 3.5 mph - N/A   Clear
11:53 AM 87.1 °F 28.0 °F 12% 29.89 in 10.0 mi Variable 5.8 mph - N/A   Clear
12:53 PM 89.1 °F 19.0 °F 8% 29.85 in 10.0 mi Calm Calm - N/A   Clear
1:53 PM 90.0 °F 18.0 °F 7% 29.82 in 10.0 mi Variable 3.5 mph - N/A   Clear
2:53 PM 91.9 °F 12.9 °F 5% 29.81 in 10.0 mi SSW 9.2 mph - N/A   Clear
3:53 PM 91.0 °F 10.0 °F 5% 29.80 in 10.0 mi WSW 8.1 mph - N/A   Clear
4:53 PM 91.0 °F 12.9 °F 6% 29.79 in 10.0 mi NW 6.9 mph - N/A   Clear
5:53 PM 86.0 °F 18.0 °F 8% 29.80 in 10.0 mi WNW 5.8 mph - N/A   Clear
6:53 PM 81.0 °F 23.0 °F 12% 29.82 in 10.0 mi WNW 3.5 mph - N/A   Clear
7:53 PM 75.0 °F 27.0 °F 17% 29.85 in 10.0 mi SW 5.8 mph - N/A   Clear
8:53 PM 73.0 °F 21.9 °F 15% 29.86 in 10.0 mi South 8.1 mph - N/A   Clear
9:53 PM 70.0 °F 23.0 °F 17% 29.86 in 10.0 mi SSW 4.6 mph - N/A   Clear
10:53 PM 66.9 °F 24.1 °F 20% 29.86 in 10.0 mi Variable 4.6 mph - N/A   Clear
11:53 PM 64.9 °F 21.9 °F 19% 29.86 in 10.0 mi SSE 8.1 mph - N/A   Clear